"Pseudo-MPEC" for P20JHtc

Created 2018 Oct 17 11:18:05 UT using Find_Orb

Click here for an explanation of pseudo-MPECs

 
 Astrometry: 
     P20JHtc  C2018 10 10r=Astrometry1#pyrs]nO`+XUMCR!hlLnWN/hD[+U_!%^NyBBN\'F52
     P20JHtc  C2018 10 10`7w34*hvop-CM1qwp\L+A^=vfy#MjU:$_][5RQBuX^a)51cL]IG]F52
     P20JHtc  C2018 10 10-dYt=7!-F;e_xFt*Rredacted;dTAnCRWo6MhZ-bwxc^DXJ)1p#;F52
     P20JHtc  C2018 10 10sug'[$Ilt_Mj2;KsWHqta;R1x=[U38N.%/%:4N,b33,yNWM_ZDYAF52
     P20JHtc ^C2018 10 15.25228123 37 01.875-16 44 44.22         21.14GVNEOCP568
     P20JHtc ^C2018 10 15.25323023 37 02.047-16 44 43.68         22.09GVNEOCP568
     P20JHtc ^C2018 10 15.25419623 37 02.247-16 44 42.95         21.84GVNEOCP568
     P20JHtc KC2018 10 17:f,l)AHYv%^`*RN29jyLvxUTK:hJtc`osee0CjX`J/?bI#;w5Tg4291
     P20JHtc KC2018 10 17Z=f5K8P9J40KDSpWmt@f\iiQf$_-8@$%UPq+ig/F!sKy'uVtov;,291
     P20JHtc KC2018 10 17?*]_cwlU=q4L!+2DLAj';p'Bk7p;heG-p^m3[9hRd#%ebk0NEOCP291

Station data:
(291) LPL/Spacewatch II  (N31.961669 W111.599905)  US/Arizona.  Observers J.
   V. Scotti, R. S. McMillan. 1.8-m f/2.7 reflector + CCD.
(568) Mauna Kea  (N19.826116 W155.472200)  US/Hawaii.
(F52) Pan-STARRS 2, Haleakala  (N20.707384 W156.255910)  US/Hawaii.

Orbital elements:  P20JHtc
   Perihelion 2018 Jul 28.048604 +/- 0.143 TT =  1:09:59 (JD 2458327.548604)
Epoch 2018 Oct 17.0 TT = JDT 2458408.5   Earth MOID: 0.0118   AutoNEOCP
M  62.35999 +/- 0.35                (J2000 ecliptic)
n   0.77033876 +/- 0.00299          Peri.  107.91135 +/- 0.06
a   1.17855054 +/- 0.00305          Node   182.05168 +/- 0.020
e   0.2407171 +/- 0.00261           Incl.    5.35092 +/- 0.046
P   1.28/467.32d           H 25.0   G  0.15   U  8.8  
q 0.89485327 +/- 0.000775    Q 1.46224781 +/- 0.00688
From 10 observations 2018 Oct. 10-17; mean residual 0".09
Residuals in arcseconds: 
181010 F52  .06+  .08-    181015 568  .08+  .03-    181017 291  .04+  .11+    
181010 F52  .02-  .10+    181015 568  .12-  .05-    181017 291  .10-  .22-    
181010 F52  .03+  .10-    181015 568  .03+  .11+    
181010 F52  .07-  .08+    181017 291  .07+  .08+    

Ephemerides (geocentric):
Date (UTC) HH   RA              Dec         delta   r     elong  mag " sig PA
---- -- -- --  -------------   -----------  ------ ------ -----  --- ---- ---
2018 10 17 11  23 44 31.286   -16 19 38.99  .13731 1.1104 143.8 22.3  .64  20
2018 10 17 12  23 44 39.248   -16 19 10.83  .13753 1.1106 143.8 22.3  .65  21
2018 10 17 13  23 44 47.190   -16 18 42.65  .13775 1.1107 143.8 22.3  .67  22
2018 10 17 14  23 44 55.113   -16 18 14.45  .13797 1.1109 143.8 22.3  .69  23
2018 10 17 15  23 45 03.016   -16 17 46.24  .13820 1.1111 143.8 22.3  .70  23
2018 10 17 16  23 45 10.900   -16 17 18.02  .13842 1.1112 143.8 22.3  .72  24
2018 10 17 17  23 45 18.765   -16 16 49.78  .13864 1.1114 143.8 22.3  .74  25
2018 10 17 18  23 45 26.610   -16 16 21.52  .13886 1.1116 143.8 22.3  .75  25
2018 10 17 19  23 45 34.437   -16 15 53.25  .13908 1.1117 143.8 22.3  .77  26
2018 10 17 20  23 45 42.244   -16 15 24.96  .13931 1.1119 143.7 22.3  .79  26
2018 10 17 21  23 45 50.033   -16 14 56.66  .13953 1.1120 143.7 22.3  .81  27
2018 10 17 22  23 45 57.803   -16 14 28.35  .13975 1.1122 143.7 22.3  .82  28
2018 10 17 23  23 46 05.554   -16 14 00.02  .13997 1.1124 143.7 22.3  .84  28
2018 10 18 00  23 46 13.287   -16 13 31.67  .14020 1.1125 143.7 22.3  .86  29
2018 10 18 01  23 46 21.001   -16 13 03.31  .14042 1.1127 143.7 22.3  .88  29
2018 10 18 02  23 46 28.696   -16 12 34.93  .14064 1.1129 143.7 22.3  .90  29
2018 10 18 03  23 46 36.373   -16 12 06.55  .14086 1.1130 143.7 22.3  .92  30
2018 10 18 04  23 46 44.032   -16 11 38.14  .14109 1.1132 143.7 22.3  .94  30
2018 10 18 05  23 46 51.673   -16 11 09.72  .14131 1.1134 143.6 22.4  .95  31
2018 10 18 06  23 46 59.295   -16 10 41.29  .14153 1.1135 143.6 22.4  .97  31
2018 10 18 07  23 47 06.900   -16 10 12.84  .14176 1.1137 143.6 22.4  1.0  32
2018 10 18 08  23 47 14.486   -16 09 44.38  .14198 1.1138 143.6 22.4  1.0  32
2018 10 18 09  23 47 22.055   -16 09 15.91  .14220 1.1140 143.6 22.4  1.0  32
2018 10 18 10  23 47 29.606   -16 08 47.42  .14243 1.1142 143.6 22.4  1.1  33
2018 10 18 11  23 47 37.139   -16 08 18.91  .14265 1.1143 143.6 22.4  1.1  33
2018 10 18 12  23 47 44.655   -16 07 50.39  .14288 1.1145 143.6 22.4  1.1  33
2018 10 18 13  23 47 52.153   -16 07 21.86  .14310 1.1147 143.6 22.4  1.1  34
2018 10 18 14  23 47 59.633   -16 06 53.32  .14332 1.1148 143.6 22.4  1.1  34
2018 10 18 15  23 48 07.096   -16 06 24.75  .14355 1.1150 143.5 22.4  1.2  34
2018 10 18 16  23 48 14.542   -16 05 56.18  .14377 1.1152 143.5 22.4  1.2  34
2018 10 18 17  23 48 21.970   -16 05 27.59  .14400 1.1153 143.5 22.4  1.2  35
2018 10 18 18  23 48 29.382   -16 04 58.99  .14422 1.1155 143.5 22.4  1.2  35
2018 10 18 19  23 48 36.776   -16 04 30.37  .14445 1.1156 143.5 22.4  1.2  35
2018 10 18 20  23 48 44.153   -16 04 01.74  .14467 1.1158 143.5 22.4  1.3  36
2018 10 18 21  23 48 51.513   -16 03 33.10  .14490 1.1160 143.5 22.4  1.3  36
2018 10 18 22  23 48 58.857   -16 03 04.44  .14512 1.1161 143.5 22.4  1.3  36
2018 10 18 23  23 49 06.184   -16 02 35.77  .14535 1.1163 143.5 22.4  1.3  36
2018 10 19 00  23 49 13.494   -16 02 07.09  .14557 1.1165 143.4 22.4  1.4  36
2018 10 19 01  23 49 20.787   -16 01 38.39  .14580 1.1166 143.4 22.4  1.4  37
2018 10 19 02  23 49 28.064   -16 01 09.68  .14602 1.1168 143.4 22.4  1.4  37
2018 10 19 03  23 49 35.324   -16 00 40.96  .14625 1.1170 143.4 22.4  1.4  37
2018 10 19 04  23 49 42.568   -16 00 12.22  .14647 1.1171 143.4 22.4  1.5  37
2018 10 19 05  23 49 49.795   -15 59 43.47  .14670 1.1173 143.4 22.4  1.5  37
2018 10 19 06  23 49 57.006   -15 59 14.70  .14692 1.1174 143.4 22.4  1.5  38
2018 10 19 07  23 50 04.202   -15 58 45.92  .14715 1.1176 143.4 22.5  1.5  38
2018 10 19 08  23 50 11.380   -15 58 17.13  .14738 1.1178 143.4 22.5  1.5  38
2018 10 19 09  23 50 18.543   -15 57 48.33  .14760 1.1179 143.3 22.5  1.6  38
2018 10 19 10  23 50 25.690   -15 57 19.51  .14783 1.1181 143.3 22.5  1.6  38